TimeCST,TemperatureF,Dew PointF,Humidity,Sea Level PressureIn,VisibilityMPH,Wind Direction,Wind SpeedMPH,Gust SpeedMPH,PrecipitationIn,Events,Conditions,WindDirDegrees,DateUTC
1:27 AM,41.0,37.4,87,30.14,4.0,Calm,Calm,-,N/A,,Overcast,0,2012-11-08 07:27:00
1:53 AM,41.0,37.0,86,30.17,5.0,Calm,Calm,-,N/A,,Overcast,0,2012-11-08 07:53:00
2:53 AM,41.0,37.9,89,30.17,4.0,Calm,Calm,-,N/A,,Overcast,0,2012-11-08 08:53:00
3:53 AM,41.0,37.9,89,30.17,4.0,Calm,Calm,-,N/A,,Overcast,0,2012-11-08 09:53:00
4:53 AM,39.9,37.0,89,30.17,4.0,Calm,Calm,-,N/A,,Overcast,0,2012-11-08 10:53:00
5:53 AM,39.9,37.0,89,30.18,5.0,Calm,Calm,-,N/A,,Overcast,0,2012-11-08 11:53:00
6:53 AM,39.9,37.0,89,30.17,4.0,South,4.6,-,N/A,,Overcast,190,2012-11-08 12:53:00
7:53 AM,41.0,37.9,89,30.19,4.0,SW,5.8,-,N/A,,Overcast,230,2012-11-08 13:53:00
8:53 AM,43.0,37.0,80,30.19,5.0,SW,5.8,-,N/A,,Haze,220,2012-11-08 14:53:00
9:53 AM,44.1,36.0,73,30.19,8.0,SW,9.2,-,N/A,,Overcast,220,2012-11-08 15:53:00
10:53 AM,45.0,34.0,65,30.17,10.0,SSW,10.4,-,N/A,,Overcast,210,2012-11-08 16:53:00
11:06 AM,44.6,33.8,66,30.14,10.0,SSW,12.7,-,N/A,,Overcast,210,2012-11-08 17:06:00
11:53 AM,46.0,34.0,63,30.14,10.0,SSW,12.7,-,N/A,,Overcast,210,2012-11-08 17:53:00
12:53 PM,45.0,34.0,65,30.12,10.0,SSW,11.5,-,N/A,,Overcast,210,2012-11-08 18:53:00
1:53 PM,46.0,35.1,66,30.10,10.0,SW,10.4,-,N/A,,Overcast,230,2012-11-08 19:53:00
2:53 PM,45.0,34.0,65,30.09,10.0,SW,9.2,-,N/A,,Mostly Cloudy,220,2012-11-08 20:53:00
3:30 PM,44.6,33.8,66,30.08,10.0,South,10.4,-,N/A,,Scattered Clouds,190,2012-11-08 21:30:00
3:53 PM,45.0,34.0,65,30.09,10.0,South,10.4,-,N/A,,Clear,190,2012-11-08 21:53:00
4:53 PM,42.1,34.0,73,30.08,10.0,South,6.9,-,N/A,,Clear,170,2012-11-08 22:53:00
5:53 PM,42.1,34.0,73,30.08,9.0,South,10.4,-,N/A,,Clear,180,2012-11-08 23:53:00
6:53 PM,42.1,34.0,73,30.09,10.0,South,10.4,-,N/A,,Clear,190,2012-11-09 00:53:00
7:53 PM,41.0,34.0,76,30.08,8.0,South,6.9,-,N/A,,Clear,190,2012-11-09 01:53:00
8:53 PM,37.9,33.1,83,30.09,7.0,SSW,5.8,-,N/A,,Clear,200,2012-11-09 02:53:00
9:53 PM,39.9,35.1,83,30.10,7.0,SW,3.5,-,N/A,,Overcast,230,2012-11-09 03:53:00
10:53 PM,39.9,34.0,79,30.11,7.0,SSW,3.5,-,N/A,,Overcast,200,2012-11-09 04:53:00
11:53 PM,41.0,35.1,79,30.11,6.0,South,4.6,-,N/A,,Haze,190,2012-11-09 05:53:00